Year,Month,Day,Hour,Minute,Value (Times are PST for temperature in C)
2020,10,29,00,00,9.70
2020,10,29,00,01,9.70
2020,10,29,00,02,9.70
2020,10,29,00,03,9.70
2020,10,29,00,04,9.60
2020,10,29,00,05,9.60
2020,10,29,00,06,9.60
2020,10,29,00,07,9.60
2020,10,29,00,08,9.50
2020,10,29,00,09,9.50
2020,10,29,00,10,9.50
2020,10,29,00,11,9.50
2020,10,29,00,12,9.50
2020,10,29,00,13,9.50
2020,10,29,00,14,9.50
2020,10,29,00,15,9.50
2020,10,29,00,16,9.50
2020,10,29,00,17,9.60
2020,10,29,00,18,9.60
2020,10,29,00,19,9.60
2020,10,29,00,20,9.60
2020,10,29,00,21,9.60
2020,10,29,00,22,9.60
2020,10,29,00,23,9.50
2020,10,29,00,24,9.60
2020,10,29,00,25,9.60
2020,10,29,00,26,9.60
2020,10,29,00,27,9.60
2020,10,29,00,28,9.50
2020,10,29,00,29,9.50
2020,10,29,00,30,9.50
2020,10,29,00,31,9.50
2020,10,29,00,32,9.50
2020,10,29,00,33,9.40
2020,10,29,00,34,9.50
2020,10,29,00,35,9.50
2020,10,29,00,36,9.50
2020,10,29,00,37,9.50
2020,10,29,00,38,9.50
2020,10,29,00,39,9.50
2020,10,29,00,40,9.50
2020,10,29,00,41,9.50
2020,10,29,00,42,9.50
2020,10,29,00,43,9.50
2020,10,29,00,44,9.40
2020,10,29,00,45,9.50
2020,10,29,00,46,9.40
2020,10,29,00,47,9.40
2020,10,29,00,48,9.40
2020,10,29,00,49,9.40
2020,10,29,00,50,9.40
2020,10,29,00,51,9.40
2020,10,29,00,52,9.40
2020,10,29,00,53,9.30
2020,10,29,00,54,9.30
2020,10,29,00,55,9.30
2020,10,29,00,56,9.30
2020,10,29,00,57,9.30
2020,10,29,00,58,9.30
2020,10,29,00,59,9.30
2020,10,29,01,00,9.30
2020,10,29,01,01,9.30
2020,10,29,01,02,9.20
2020,10,29,01,03,9.20
2020,10,29,01,04,9.20
2020,10,29,01,05,9.20
2020,10,29,01,06,9.20
2020,10,29,01,07,9.20
2020,10,29,01,08,9.20
2020,10,29,01,09,9.20
2020,10,29,01,10,9.20
2020,10,29,01,11,9.20
2020,10,29,01,12,9.20
2020,10,29,01,13,9.20
2020,10,29,01,14,9.20
2020,10,29,01,15,9.20
2020,10,29,01,16,9.20
2020,10,29,01,17,9.20
2020,10,29,01,18,9.20
2020,10,29,01,19,9.20
2020,10,29,01,20,9.20
2020,10,29,01,21,9.20
2020,10,29,01,22,9.20
2020,10,29,01,23,9.20
2020,10,29,01,24,9.20
2020,10,29,01,25,9.20
2020,10,29,01,26,9.20
2020,10,29,01,27,9.20
2020,10,29,01,28,9.20
2020,10,29,01,29,9.20
2020,10,29,01,30,9.20
2020,10,29,01,31,9.10
2020,10,29,01,32,9.10
2020,10,29,01,33,9.10
2020,10,29,01,34,9.10
2020,10,29,01,35,9.10
2020,10,29,01,36,9.10
2020,10,29,01,37,9.10
2020,10,29,01,38,9.10
2020,10,29,01,39,9.10
2020,10,29,01,40,9.10
2020,10,29,01,41,9.10
2020,10,29,01,42,9.10
2020,10,29,01,43,9.10
2020,10,29,01,44,9.00
2020,10,29,01,45,9.00
2020,10,29,01,46,9.00
2020,10,29,01,47,9.10
2020,10,29,01,48,9.10
2020,10,29,01,49,9.10
2020,10,29,01,50,9.10
2020,10,29,01,51,9.10
2020,10,29,01,52,9.10
2020,10,29,01,53,9.10
2020,10,29,01,54,9.20
2020,10,29,01,55,9.20
2020,10,29,01,56,9.30
2020,10,29,01,57,9.30
2020,10,29,01,58,9.30
2020,10,29,01,59,9.40
2020,10,29,02,00,9.30
2020,10,29,02,01,9.40
2020,10,29,02,02,9.40
2020,10,29,02,03,9.40
2020,10,29,02,04,9.40
2020,10,29,02,05,9.40
2020,10,29,02,06,9.40
2020,10,29,02,07,9.40
2020,10,29,02,08,9.40
2020,10,29,02,09,9.40
2020,10,29,02,10,9.30
2020,10,29,02,11,9.30
2020,10,29,02,12,9.20
2020,10,29,02,13,9.20
2020,10,29,02,14,9.20
2020,10,29,02,15,9.20
2020,10,29,02,16,9.20
2020,10,29,02,17,9.10
2020,10,29,02,18,9.10
2020,10,29,02,19,9.10
2020,10,29,02,20,9.10
2020,10,29,02,21,9.10
2020,10,29,02,22,9.10
2020,10,29,02,23,9.10
2020,10,29,02,24,9.10
2020,10,29,02,25,9.10
2020,10,29,02,26,9.10
2020,10,29,02,27,9.10
2020,10,29,02,28,9.10
2020,10,29,02,29,9.10
2020,10,29,02,30,9.00
2020,10,29,02,31,9.00
2020,10,29,02,32,9.00
2020,10,29,02,33,9.00
2020,10,29,02,34,9.00
2020,10,29,02,35,9.00
2020,10,29,02,36,8.90
2020,10,29,02,37,8.90
2020,10,29,02,38,8.90
2020,10,29,02,39,8.90
2020,10,29,02,40,8.90
2020,10,29,02,41,8.90
2020,10,29,02,42,8.90
2020,10,29,02,43,8.90
2020,10,29,02,44,8.90
2020,10,29,02,45,8.90
2020,10,29,02,46,8.90
2020,10,29,02,47,8.90
2020,10,29,02,48,8.90
2020,10,29,02,49,8.90
2020,10,29,02,50,8.90
2020,10,29,02,51,8.90
2020,10,29,02,52,8.90
2020,10,29,02,53,8.90
2020,10,29,02,54,8.90
2020,10,29,02,55,8.90
2020,10,29,02,56,9.00
2020,10,29,02,57,9.00
2020,10,29,02,58,9.00
2020,10,29,02,59,9.00
2020,10,29,03,00,9.00
2020,10,29,03,01,9.00
2020,10,29,03,02,9.00
2020,10,29,03,03,9.10
2020,10,29,03,04,9.20
2020,10,29,03,05,9.20
2020,10,29,03,06,9.30
2020,10,29,03,07,9.30
2020,10,29,03,08,9.40
2020,10,29,03,09,9.40
2020,10,29,03,10,9.40
2020,10,29,03,11,9.50
2020,10,29,03,12,9.50
2020,10,29,03,13,9.50
2020,10,29,03,14,9.50
2020,10,29,03,15,9.50
2020,10,29,03,16,9.50
2020,10,29,03,17,9.50
2020,10,29,03,18,9.50
2020,10,29,03,19,9.50
2020,10,29,03,20,9.50
2020,10,29,03,21,9.50
2020,10,29,03,22,9.40
2020,10,29,03,23,9.40
2020,10,29,03,24,9.40
2020,10,29,03,25,9.40
2020,10,29,03,26,9.30
2020,10,29,03,27,9.30
2020,10,29,03,28,9.30
2020,10,29,03,29,9.30
2020,10,29,03,30,9.30
2020,10,29,03,31,9.30
2020,10,29,03,32,9.30
2020,10,29,03,33,9.40
2020,10,29,03,34,9.40
2020,10,29,03,35,9.40
2020,10,29,03,36,9.40
2020,10,29,03,37,9.40
2020,10,29,03,38,9.40
2020,10,29,03,39,9.50
2020,10,29,03,40,9.50
2020,10,29,03,41,9.60
2020,10,29,03,42,9.60
2020,10,29,03,43,9.60
2020,10,29,03,44,9.60
2020,10,29,03,45,9.60
2020,10,29,03,46,9.60
2020,10,29,03,47,9.60
2020,10,29,03,48,9.70
2020,10,29,03,49,9.70
2020,10,29,03,50,9.80
2020,10,29,03,51,9.80
2020,10,29,03,52,9.80
2020,10,29,03,53,9.80
2020,10,29,03,54,9.90
2020,10,29,03,55,10.00
2020,10,29,03,56,10.00
2020,10,29,03,57,10.10
2020,10,29,03,58,10.10
2020,10,29,03,59,10.20
2020,10,29,04,00,10.20
2020,10,29,04,01,10.20
2020,10,29,04,02,10.20
2020,10,29,04,03,10.20
2020,10,29,04,04,10.20
2020,10,29,04,05,10.30
2020,10,29,04,06,10.30
2020,10,29,04,07,10.30
2020,10,29,04,08,10.30
2020,10,29,04,09,10.30
2020,10,29,04,10,10.30
2020,10,29,04,11,10.30
2020,10,29,04,12,10.30
2020,10,29,04,13,10.30
2020,10,29,04,14,10.30
2020,10,29,04,15,10.30
2020,10,29,04,16,10.30
2020,10,29,04,17,10.30
2020,10,29,04,18,10.30
2020,10,29,04,19,10.30
2020,10,29,04,20,10.30
2020,10,29,04,21,10.30
2020,10,29,04,22,10.30
2020,10,29,04,23,10.30
2020,10,29,04,24,10.40
2020,10,29,04,25,10.30
2020,10,29,04,26,10.40
2020,10,29,04,27,10.40
2020,10,29,04,28,10.40
2020,10,29,04,29,10.40
2020,10,29,04,30,10.40
2020,10,29,04,31,10.40
2020,10,29,04,32,10.40
2020,10,29,04,33,10.40
2020,10,29,04,34,10.40
2020,10,29,04,35,10.40
2020,10,29,04,36,10.40
2020,10,29,04,37,10.40
2020,10,29,04,38,10.40
2020,10,29,04,39,10.40
2020,10,29,04,40,10.50
2020,10,29,04,41,10.50
2020,10,29,04,42,10.50
2020,10,29,04,43,10.50
2020,10,29,04,44,10.50
2020,10,29,04,45,10.50
2020,10,29,04,46,10.50
2020,10,29,04,47,10.50
2020,10,29,04,48,10.60
2020,10,29,04,49,10.60
2020,10,29,04,50,10.60
2020,10,29,04,51,10.60
2020,10,29,04,52,10.60
2020,10,29,04,53,10.60
2020,10,29,04,54,10.60
2020,10,29,04,55,10.60
2020,10,29,04,56,10.60
2020,10,29,04,57,10.60
2020,10,29,04,58,10.60
2020,10,29,04,59,10.60
2020,10,29,05,00,10.60
2020,10,29,05,01,10.60
2020,10,29,05,02,10.60
2020,10,29,05,03,10.60
2020,10,29,05,04,10.60
2020,10,29,05,05,10.60
2020,10,29,05,06,10.60
2020,10,29,05,07,10.60
2020,10,29,05,08,10.60
2020,10,29,05,09,10.60
2020,10,29,05,10,10.50
2020,10,29,05,11,10.50
2020,10,29,05,12,10.50
2020,10,29,05,13,10.50
2020,10,29,05,14,10.50
2020,10,29,05,15,10.50
2020,10,29,05,16,10.50
2020,10,29,05,17,10.50
2020,10,29,05,18,10.50
2020,10,29,05,19,10.50
2020,10,29,05,20,10.50
2020,10,29,05,21,10.50
2020,10,29,05,22,10.50
2020,10,29,05,23,10.50
2020,10,29,05,24,10.50
2020,10,29,05,25,10.50
2020,10,29,05,26,10.50
2020,10,29,05,27,10.50
2020,10,29,05,28,10.50
2020,10,29,05,29,10.50
2020,10,29,05,30,10.50
2020,10,29,05,31,10.50
2020,10,29,05,32,10.50
2020,10,29,05,33,10.50
2020,10,29,05,34,10.50
2020,10,29,05,35,10.50
2020,10,29,05,36,10.50
2020,10,29,05,37,10.50
2020,10,29,05,38,10.50
2020,10,29,05,39,10.50
2020,10,29,05,40,10.50
2020,10,29,05,41,10.40
2020,10,29,05,42,10.40
2020,10,29,05,43,10.40
2020,10,29,05,44,10.40
2020,10,29,05,45,10.40
2020,10,29,05,46,10.40
2020,10,29,05,47,10.40
2020,10,29,05,48,10.40
2020,10,29,05,49,10.40
2020,10,29,05,50,10.40
2020,10,29,05,51,10.40
2020,10,29,05,52,10.40
2020,10,29,05,53,10.40
2020,10,29,05,54,10.40
2020,10,29,05,55,10.30
2020,10,29,05,56,10.30
2020,10,29,05,57,10.30
2020,10,29,05,58,10.30
2020,10,29,05,59,10.30
2020,10,29,06,00,10.30
2020,10,29,06,01,10.30
2020,10,29,06,02,10.30
2020,10,29,06,03,10.20
2020,10,29,06,04,10.20
2020,10,29,06,05,10.20
2020,10,29,06,06,10.20
2020,10,29,06,07,10.20
2020,10,29,06,08,10.20
2020,10,29,06,09,10.20
2020,10,29,06,10,10.20
2020,10,29,06,11,10.20
2020,10,29,06,12,10.20
2020,10,29,06,13,10.20
2020,10,29,06,14,10.10
2020,10,29,06,15,10.10
2020,10,29,06,16,10.10
2020,10,29,06,17,10.10
2020,10,29,06,18,10.00
2020,10,29,06,19,10.00
2020,10,29,06,20,10.00
2020,10,29,06,21,9.90
2020,10,29,06,22,9.90
2020,10,29,06,23,9.90
2020,10,29,06,24,9.90
2020,10,29,06,25,9.90
2020,10,29,06,26,9.90
2020,10,29,06,27,9.80
2020,10,29,06,28,9.80
2020,10,29,06,29,9.80
2020,10,29,06,30,9.70
2020,10,29,06,31,9.70
2020,10,29,06,32,9.70
2020,10,29,06,33,9.70
2020,10,29,06,34,9.70
2020,10,29,06,35,9.60
2020,10,29,06,36,9.60
2020,10,29,06,37,9.60
2020,10,29,06,38,9.60
2020,10,29,06,39,9.60
2020,10,29,06,40,9.60
2020,10,29,06,41,9.60
2020,10,29,06,42,9.60
2020,10,29,06,43,9.60
2020,10,29,06,44,9.60
2020,10,29,06,45,9.60
2020,10,29,06,46,9.60
2020,10,29,06,47,9.60
2020,10,29,06,48,9.60
2020,10,29,06,49,9.60
2020,10,29,06,50,9.60
2020,10,29,06,51,9.60
2020,10,29,06,52,9.60
2020,10,29,06,53,9.60
2020,10,29,08,51,7.70
2020,10,29,08,52,7.70
2020,10,29,08,53,7.70
2020,10,29,08,54,7.80
2020,10,29,08,55,7.80
2020,10,29,08,56,7.90
2020,10,29,08,57,7.90
2020,10,29,08,58,7.90
2020,10,29,08,59,7.90
2020,10,29,09,00,8.00
2020,10,29,09,01,8.00
2020,10,29,09,02,8.00
2020,10,29,09,03,8.00
2020,10,29,09,04,8.10
2020,10,29,09,05,8.10
2020,10,29,09,06,8.10
2020,10,29,09,07,8.20
2020,10,29,09,08,8.20
2020,10,29,09,09,8.20
2020,10,29,09,10,8.30
2020,10,29,09,11,8.30
2020,10,29,09,12,8.30
2020,10,29,09,13,8.40
2020,10,29,09,14,8.40
2020,10,29,09,15,8.40
2020,10,29,09,16,8.50
2020,10,29,09,17,8.50
2020,10,29,09,18,8.60
2020,10,29,09,19,8.60
2020,10,29,09,20,8.60
2020,10,29,09,21,8.70
2020,10,29,09,22,8.70
2020,10,29,09,23,8.70
2020,10,29,09,24,8.80
2020,10,29,09,25,8.80
2020,10,29,09,26,8.90
2020,10,29,09,27,8.90
2020,10,29,09,28,8.90
2020,10,29,09,29,9.00
2020,10,29,09,30,9.00
2020,10,29,09,31,9.10
2020,10,29,09,32,9.10
2020,10,29,09,33,9.10
2020,10,29,09,34,9.20
2020,10,29,09,35,9.20
2020,10,29,09,36,9.20
2020,10,29,09,37,9.20
2020,10,29,09,38,9.30
2020,10,29,09,39,9.30
2020,10,29,09,40,9.40
2020,10,29,09,41,9.50
2020,10,29,09,42,9.50
2020,10,29,09,43,9.60
2020,10,29,09,44,9.70
2020,10,29,09,45,9.70
2020,10,29,09,46,9.80
2020,10,29,09,47,9.90
2020,10,29,09,48,9.90
2020,10,29,09,49,10.00
2020,10,29,09,50,10.10
2020,10,29,09,51,10.20
2020,10,29,09,52,10.20
2020,10,29,09,53,10.30
2020,10,29,09,54,10.30
2020,10,29,09,55,10.40
2020,10,29,09,56,10.40
2020,10,29,09,57,10.50
2020,10,29,09,58,10.60
2020,10,29,09,59,10.60
2020,10,29,10,00,10.70
2020,10,29,10,01,10.70
2020,10,29,10,02,10.70
2020,10,29,10,03,10.70
2020,10,29,10,04,10.70
2020,10,29,10,05,10.80
2020,10,29,10,06,10.80
2020,10,29,10,07,10.80
2020,10,29,10,08,10.80
2020,10,29,10,09,10.80
2020,10,29,10,10,10.80
2020,10,29,10,11,10.90
2020,10,29,10,12,10.90
2020,10,29,10,13,10.90
2020,10,29,10,14,11.00
2020,10,29,10,15,11.00
2020,10,29,10,16,11.10
2020,10,29,10,17,11.10
2020,10,29,10,18,11.20
2020,10,29,10,19,11.20
2020,10,29,10,20,11.30
2020,10,29,10,21,11.40
2020,10,29,10,22,11.40
2020,10,29,10,23,11.50
2020,10,29,10,24,11.50
2020,10,29,10,25,11.50
2020,10,29,10,26,11.60
2020,10,29,10,27,11.60
2020,10,29,10,28,11.60
2020,10,29,10,29,11.60
2020,10,29,10,30,11.60
2020,10,29,10,31,11.60
2020,10,29,10,32,11.60
2020,10,29,10,33,11.60
2020,10,29,10,34,11.70
2020,10,29,10,35,11.70
2020,10,29,10,36,11.70
2020,10,29,10,37,11.70
2020,10,29,10,38,11.70
2020,10,29,10,39,11.70
2020,10,29,10,40,11.70
2020,10,29,10,41,11.70
2020,10,29,10,42,11.70
2020,10,29,10,43,11.70
2020,10,29,10,44,11.70
2020,10,29,10,45,11.70
2020,10,29,10,46,11.80
2020,10,29,10,47,11.70
2020,10,29,10,48,11.80
2020,10,29,10,49,11.80
2020,10,29,10,50,11.80
2020,10,29,10,51,11.80
2020,10,29,10,52,11.80
2020,10,29,10,53,11.80
2020,10,29,10,54,11.80
2020,10,29,10,55,11.80
2020,10,29,10,56,11.80
2020,10,29,10,57,11.90
2020,10,29,10,58,11.90
2020,10,29,10,59,11.90
2020,10,29,11,00,12.00
2020,10,29,11,01,12.00
2020,10,29,11,02,12.00
2020,10,29,11,03,12.00
2020,10,29,11,04,12.10
2020,10,29,11,05,12.10
2020,10,29,11,06,12.10
2020,10,29,11,07,12.20
2020,10,29,11,08,12.20
2020,10,29,11,09,12.20
2020,10,29,11,10,12.30
2020,10,29,11,11,12.30
2020,10,29,11,12,12.30
2020,10,29,11,13,12.30
2020,10,29,11,14,12.40
2020,10,29,11,15,12.50
2020,10,29,11,16,12.50
2020,10,29,11,17,12.50
2020,10,29,11,18,12.50
2020,10,29,11,19,12.50
2020,10,29,11,20,12.50
2020,10,29,11,21,12.50
2020,10,29,11,22,12.60
2020,10,29,11,23,12.60
2020,10,29,11,24,12.60
2020,10,29,11,25,12.60
2020,10,29,11,26,12.70
2020,10,29,11,27,12.70
2020,10,29,11,28,12.70
2020,10,29,11,29,12.70
2020,10,29,11,30,12.70
2020,10,29,11,31,12.70
2020,10,29,11,32,12.80
2020,10,29,11,33,12.80
2020,10,29,11,34,12.90
2020,10,29,11,35,12.90
2020,10,29,11,36,12.90
2020,10,29,11,37,12.90
2020,10,29,11,38,12.90
2020,10,29,11,39,12.80
2020,10,29,11,40,12.80
2020,10,29,11,41,12.80
2020,10,29,11,42,12.90
2020,10,29,11,43,12.90
2020,10,29,11,44,12.90
2020,10,29,11,45,12.80
2020,10,29,11,46,12.80
2020,10,29,11,47,12.80
2020,10,29,11,48,12.80
2020,10,29,11,49,12.80
2020,10,29,11,50,12.80
2020,10,29,11,51,12.80
2020,10,29,11,52,12.80
2020,10,29,11,53,12.80
2020,10,29,11,54,12.80
2020,10,29,11,55,12.90
2020,10,29,11,56,12.90
2020,10,29,11,57,12.90
2020,10,29,11,58,12.90
2020,10,29,11,59,13.00
2020,10,29,12,00,13.00
2020,10,29,12,01,13.00
2020,10,29,12,02,12.90
2020,10,29,12,03,12.90
2020,10,29,12,04,12.90
2020,10,29,12,05,12.90
2020,10,29,12,06,12.90
2020,10,29,12,07,12.80
2020,10,29,12,08,12.80
2020,10,29,12,09,12.80
2020,10,29,12,10,12.80
2020,10,29,12,11,12.80
2020,10,29,12,12,12.90
2020,10,29,12,13,12.90
2020,10,29,12,14,13.00
2020,10,29,12,15,12.90
2020,10,29,12,16,12.90
2020,10,29,12,17,13.00
2020,10,29,12,18,13.00
2020,10,29,12,19,13.00
2020,10,29,12,20,13.00
2020,10,29,12,21,13.00
2020,10,29,12,22,13.00
2020,10,29,12,23,13.00
2020,10,29,12,24,13.10
2020,10,29,12,25,13.10
2020,10,29,12,26,13.10
2020,10,29,12,27,13.10
2020,10,29,12,28,13.10
2020,10,29,12,29,13.20
2020,10,29,12,30,13.20
2020,10,29,12,31,13.20
2020,10,29,12,32,13.20
2020,10,29,12,33,13.20
2020,10,29,12,34,13.20
2020,10,29,12,35,13.20
2020,10,29,12,36,13.10
2020,10,29,12,37,13.10
2020,10,29,12,38,13.10
2020,10,29,12,39,13.00
2020,10,29,12,40,13.00
2020,10,29,12,41,12.90
2020,10,29,12,42,12.90
2020,10,29,12,43,12.90
2020,10,29,12,44,12.90
2020,10,29,12,45,12.90
2020,10,29,12,46,12.90
2020,10,29,12,47,12.90
2020,10,29,12,48,13.00
2020,10,29,12,49,13.00
2020,10,29,12,50,13.00
2020,10,29,12,51,13.00
2020,10,29,12,52,12.90
2020,10,29,12,53,12.90
2020,10,29,12,54,12.90
2020,10,29,12,55,12.90
2020,10,29,12,56,12.90
2020,10,29,12,57,12.90
2020,10,29,12,58,12.90
2020,10,29,12,59,12.90
2020,10,29,13,00,12.90
2020,10,29,13,01,13.00
2020,10,29,13,02,13.00
2020,10,29,13,03,13.00
2020,10,29,13,04,13.00
2020,10,29,13,05,13.00
2020,10,29,13,06,13.00
2020,10,29,13,07,13.00
2020,10,29,13,08,13.00
2020,10,29,13,09,13.00
2020,10,29,13,10,13.00
2020,10,29,13,11,13.00
2020,10,29,13,12,12.90
2020,10,29,13,13,12.90
2020,10,29,13,14,12.90
2020,10,29,13,15,12.90
2020,10,29,13,16,12.90
2020,10,29,13,17,12.90
2020,10,29,13,18,12.90
2020,10,29,13,19,13.00
2020,10,29,13,20,13.00
2020,10,29,13,21,13.00
2020,10,29,13,22,13.00
2020,10,29,13,23,13.10
2020,10,29,13,24,13.10
2020,10,29,13,25,13.10
2020,10,29,13,26,13.10
2020,10,29,13,27,13.10
2020,10,29,13,28,13.20
2020,10,29,13,29,13.20
2020,10,29,13,30,13.20
2020,10,29,13,31,13.20
2020,10,29,13,32,13.20
2020,10,29,13,33,13.20
2020,10,29,13,34,13.20
2020,10,29,13,35,13.30
2020,10,29,13,36,13.30
2020,10,29,13,37,13.30
2020,10,29,13,38,13.30
2020,10,29,13,39,13.30
2020,10,29,13,40,13.30
2020,10,29,13,41,13.30
2020,10,29,13,42,13.30
2020,10,29,13,43,13.40
2020,10,29,13,44,13.40
2020,10,29,13,45,13.40
2020,10,29,13,46,13.40
2020,10,29,13,47,13.50
2020,10,29,13,48,13.50
2020,10,29,13,49,13.50
2020,10,29,13,50,13.60
2020,10,29,13,51,13.60
2020,10,29,13,52,13.60
2020,10,29,13,53,13.60
2020,10,29,13,54,13.60
2020,10,29,13,55,13.60
2020,10,29,13,56,13.60
2020,10,29,13,57,13.60
2020,10,29,13,58,13.60
2020,10,29,13,59,13.60
2020,10,29,14,00,13.60
2020,10,29,14,01,13.50
2020,10,29,14,02,13.50
2020,10,29,14,03,13.40
2020,10,29,14,04,13.30
2020,10,29,14,05,13.30
2020,10,29,14,06,13.20
2020,10,29,14,07,13.20
2020,10,29,14,08,13.20
2020,10,29,14,09,13.20
2020,10,29,14,10,13.10
2020,10,29,14,11,13.10
2020,10,29,14,12,13.10
2020,10,29,14,13,13.10
2020,10,29,14,14,13.10
2020,10,29,14,15,13.10
2020,10,29,14,16,13.10
2020,10,29,14,17,13.10
2020,10,29,14,18,13.10
2020,10,29,14,19,13.10
2020,10,29,14,20,13.10
2020,10,29,14,21,13.10
2020,10,29,14,22,13.10
2020,10,29,14,23,13.10
2020,10,29,14,24,13.10
2020,10,29,14,25,13.10
2020,10,29,14,26,13.10
2020,10,29,14,27,13.10
2020,10,29,14,28,13.10
2020,10,29,14,29,13.10
2020,10,29,14,30,13.10
2020,10,29,14,31,13.00
2020,10,29,14,32,13.00
2020,10,29,14,33,13.00
2020,10,29,14,34,13.00
2020,10,29,14,35,13.10
2020,10,29,14,36,13.10
2020,10,29,14,37,13.10
2020,10,29,14,38,13.10
2020,10,29,14,39,13.10
2020,10,29,14,40,13.10
2020,10,29,14,41,13.10
2020,10,29,14,42,13.10
2020,10,29,14,43,13.10
2020,10,29,14,44,13.00
2020,10,29,14,45,13.10
2020,10,29,14,46,13.10
2020,10,29,14,47,13.00
2020,10,29,14,48,13.00
2020,10,29,14,49,13.00
2020,10,29,14,50,12.90
2020,10,29,14,51,12.90
2020,10,29,14,52,12.80
2020,10,29,14,53,12.80
2020,10,29,14,54,12.80
2020,10,29,14,55,12.70
2020,10,29,14,56,12.60
2020,10,29,14,57,12.60
2020,10,29,14,58,12.50
2020,10,29,14,59,12.50
2020,10,29,15,00,12.40
2020,10,29,15,01,12.40
2020,10,29,15,02,12.40
2020,10,29,15,03,12.40
2020,10,29,15,04,12.40
2020,10,29,15,05,12.40
2020,10,29,15,06,12.40
2020,10,29,15,07,12.40
2020,10,29,15,08,12.50
2020,10,29,15,09,12.50
2020,10,29,15,10,12.60
2020,10,29,15,11,12.60
2020,10,29,15,12,12.70
2020,10,29,15,13,12.70
2020,10,29,15,14,12.80
2020,10,29,15,15,12.80
2020,10,29,15,16,12.90
2020,10,29,15,17,12.90
2020,10,29,15,18,13.00
2020,10,29,15,19,13.00
2020,10,29,15,20,13.10
2020,10,29,15,21,13.10
2020,10,29,15,22,13.10
2020,10,29,15,23,13.10
2020,10,29,15,24,13.10
2020,10,29,15,25,13.10
2020,10,29,15,26,13.10
2020,10,29,15,27,13.10
2020,10,29,15,28,13.10
2020,10,29,15,29,13.10
2020,10,29,15,30,13.10
2020,10,29,15,31,13.00
2020,10,29,15,32,13.00
2020,10,29,15,33,12.90
2020,10,29,15,34,12.90
2020,10,29,15,35,12.80
2020,10,29,15,36,12.80
2020,10,29,15,37,12.70
2020,10,29,15,38,12.70
2020,10,29,15,39,12.70
2020,10,29,15,40,12.70
2020,10,29,15,41,12.60
2020,10,29,15,42,12.60
2020,10,29,15,43,12.60
2020,10,29,15,44,12.60
2020,10,29,15,45,12.50
2020,10,29,15,46,12.50
2020,10,29,15,47,12.40
2020,10,29,15,48,12.40
2020,10,29,15,49,12.40
2020,10,29,15,50,12.40
2020,10,29,15,51,12.30
2020,10,29,15,52,12.30
2020,10,29,15,53,12.30
2020,10,29,15,54,12.30
2020,10,29,15,55,12.20
2020,10,29,15,56,12.20
2020,10,29,15,57,12.20
2020,10,29,15,58,12.20
2020,10,29,15,59,12.20
2020,10,29,16,00,12.20
2020,10,29,16,01,12.20
2020,10,29,16,02,12.20
2020,10,29,16,03,12.20
2020,10,29,16,04,12.20
2020,10,29,16,05,12.20
2020,10,29,16,06,12.20
2020,10,29,16,07,12.20
2020,10,29,16,08,12.20
2020,10,29,16,09,12.20
2020,10,29,16,10,12.20
2020,10,29,16,11,12.20
2020,10,29,16,12,12.20
2020,10,29,16,13,12.20
2020,10,29,16,14,12.20
2020,10,29,16,15,12.20
2020,10,29,16,16,12.20
2020,10,29,16,17,12.20
2020,10,29,16,18,12.20
2020,10,29,16,19,12.20
2020,10,29,16,20,12.20
2020,10,29,16,21,12.20
2020,10,29,16,22,12.20
2020,10,29,16,23,12.20
2020,10,29,16,24,12.20
2020,10,29,16,25,12.30
2020,10,29,16,26,12.30
2020,10,29,16,27,12.30
2020,10,29,16,28,12.30
2020,10,29,16,29,12.40
2020,10,29,16,30,12.40
2020,10,29,16,31,12.40
2020,10,29,16,32,12.40
2020,10,29,16,33,12.40
2020,10,29,16,34,12.40
2020,10,29,16,35,12.40
2020,10,29,16,36,12.40
2020,10,29,16,37,12.40
2020,10,29,16,38,12.40
2020,10,29,16,39,12.40
2020,10,29,16,40,12.40
2020,10,29,16,41,12.40
2020,10,29,16,42,12.40
2020,10,29,16,43,12.40
2020,10,29,16,44,12.40
2020,10,29,16,45,12.40
2020,10,29,16,46,12.40
2020,10,29,16,47,12.40
2020,10,29,16,48,12.40
2020,10,29,16,49,12.40
2020,10,29,16,50,12.40
2020,10,29,16,51,12.40
2020,10,29,16,52,12.40
2020,10,29,16,53,12.40
2020,10,29,16,54,12.40
2020,10,29,16,55,12.30
2020,10,29,16,56,12.30
2020,10,29,16,57,12.30
2020,10,29,16,58,12.30
2020,10,29,16,59,12.30
2020,10,29,17,00,12.30
2020,10,29,17,01,12.30
2020,10,29,17,02,12.20
2020,10,29,17,03,12.20
2020,10,29,17,04,12.20
2020,10,29,17,05,12.20
2020,10,29,17,06,12.20
2020,10,29,17,07,12.20
2020,10,29,17,08,12.20
2020,10,29,17,09,12.20
2020,10,29,17,10,12.20
2020,10,29,17,11,12.20
2020,10,29,17,12,12.20
2020,10,29,17,13,12.20
2020,10,29,17,14,12.20
2020,10,29,17,15,12.20
2020,10,29,17,16,12.20
2020,10,29,17,17,12.20
2020,10,29,17,18,12.20
2020,10,29,17,19,12.20
2020,10,29,17,20,12.20
2020,10,29,17,21,12.20
2020,10,29,17,22,12.10
2020,10,29,17,23,12.10
2020,10,29,17,24,12.10
2020,10,29,17,25,12.10
2020,10,29,17,26,12.10
2020,10,29,17,27,12.10
2020,10,29,17,28,12.10
2020,10,29,17,29,12.10
2020,10,29,17,30,12.10
2020,10,29,17,31,12.10
2020,10,29,17,32,12.10
2020,10,29,17,33,12.10
2020,10,29,17,34,12.10
2020,10,29,17,35,12.10
2020,10,29,17,36,12.10
2020,10,29,17,37,12.10
2020,10,29,17,38,12.10
2020,10,29,17,39,12.00
2020,10,29,17,40,12.00
2020,10,29,17,41,12.00
2020,10,29,17,42,12.00
2020,10,29,17,43,12.00
2020,10,29,17,44,12.00
2020,10,29,17,45,12.00
2020,10,29,17,46,12.00
2020,10,29,17,47,12.00
2020,10,29,17,48,12.00
2020,10,29,17,49,12.00
2020,10,29,17,50,12.00
2020,10,29,17,51,11.90
2020,10,29,17,52,11.90
2020,10,29,17,53,11.90
2020,10,29,17,54,11.90
2020,10,29,17,55,11.90
2020,10,29,17,56,11.90
2020,10,29,17,57,11.90
2020,10,29,17,58,11.90
2020,10,29,17,59,11.90
2020,10,29,18,00,11.90
2020,10,29,18,01,11.90
2020,10,29,18,02,11.90
2020,10,29,18,03,11.90
2020,10,29,18,04,11.90
2020,10,29,18,05,11.90
2020,10,29,18,06,11.90
2020,10,29,18,07,11.90
2020,10,29,18,08,11.90
2020,10,29,18,09,11.90
2020,10,29,18,10,11.90
2020,10,29,18,11,11.80
2020,10,29,18,12,11.80
2020,10,29,18,13,11.80
2020,10,29,18,14,11.80
2020,10,29,18,15,11.80
2020,10,29,18,16,11.80
2020,10,29,18,17,11.80
2020,10,29,18,18,11.80
2020,10,29,18,19,11.80
2020,10,29,18,20,11.80
2020,10,29,18,21,11.80
2020,10,29,18,22,11.80
2020,10,29,18,23,11.70
2020,10,29,18,24,11.70
2020,10,29,18,25,11.70
2020,10,29,18,26,11.70
2020,10,29,18,27,11.70
2020,10,29,18,28,11.80
2020,10,29,18,29,11.80
2020,10,29,18,30,11.80
2020,10,29,18,31,11.80
2020,10,29,18,32,11.80
2020,10,29,18,33,11.80
2020,10,29,18,34,11.80
2020,10,29,18,35,11.80
2020,10,29,18,36,11.80
2020,10,29,18,37,11.80
2020,10,29,18,38,11.80
2020,10,29,18,39,11.80
2020,10,29,18,40,11.80
2020,10,29,18,41,11.80
2020,10,29,18,42,11.80
2020,10,29,18,43,11.80
2020,10,29,18,44,11.80
2020,10,29,18,45,11.80
2020,10,29,18,46,11.80
2020,10,29,18,47,11.80
2020,10,29,18,48,11.80
2020,10,29,18,49,11.80
2020,10,29,18,50,11.80
2020,10,29,18,51,11.80
2020,10,29,18,52,11.80
2020,10,29,18,53,11.80
2020,10,29,18,54,11.70
2020,10,29,18,55,11.70
2020,10,29,18,56,11.70
2020,10,29,18,57,11.70
2020,10,29,18,58,11.70
2020,10,29,18,59,11.70
2020,10,29,19,00,11.70
2020,10,29,19,01,11.70
2020,10,29,19,02,11.70
2020,10,29,19,03,11.70
2020,10,29,19,04,11.70
2020,10,29,19,05,11.70
2020,10,29,19,06,11.70
2020,10,29,19,07,11.70
2020,10,29,19,08,11.70
2020,10,29,19,09,11.70
2020,10,29,19,10,11.70
2020,10,29,19,11,11.70
2020,10,29,19,12,11.70
2020,10,29,19,13,11.70
2020,10,29,19,14,11.70
2020,10,29,19,15,11.70
2020,10,29,19,16,11.70
2020,10,29,19,17,11.70
2020,10,29,19,18,11.70
2020,10,29,19,19,11.70
2020,10,29,19,20,11.70
2020,10,29,19,21,11.70
2020,10,29,19,22,11.70
2020,10,29,19,23,11.70
2020,10,29,19,24,11.70
2020,10,29,19,25,11.70
2020,10,29,19,26,11.70
2020,10,29,19,27,11.70
2020,10,29,19,28,11.70
2020,10,29,19,29,11.80
2020,10,29,19,30,11.80